Change the Weather History Date:

Tuesday, July 3, 2012

  Actual Average Record
Temperature  
Mean Temperature 57 °F 61 °F  
Max Temperature 64 °F 69 °F 84 °F (1968)
Min Temperature 51 °F 52 °F 41 °F (1963)
Degree Days  
Heating Degree Days 8 4  
Month to date heating degree days 12  
Since 1 June heating degree days 213  
Cooling Degree Days 0 0  
Month to date cooling degree days 0  
Year to date cooling degree days 4  
Since 1 June cooling degree days 4  
Growing Degree Days 7 (Base 50)    
Moisture  
Dew Point 51 °F    
Average Humidity 89    
Maximum Humidity 100    
Minimum Humidity 52    
Precipitation  
Precipitation 0.85 in 0.04 in 1.39 in (1982)
Month to date precipitation 0.14  
Year to date precipitation 18.08  
Sea Level Pressure  
Sea Level Pressure 29.94 in    
Wind  
Wind Speed 5 mph (South)    
Max Wind Speed 15 mph    
Max Gust Speed 23 mph    
Visibility 6 miles    
Events Rain    
T = Trace of Precipitation, MM = Missing Value Source: NWS Daily Summary

Daily Weather History Graph

Daily Weather History Graph

Search for Another Location

Airport or City:

Trip Planner

Search our weather history database for the weather conditions in past years. The results will help you decide how hot, cold, wet, or windy it might be!

Date:

Astronomy

Jul. 03, 2012 Rise Set
Actual Time 5:12 AM PDT 9:15 PM PDT
Civil Twilight 4:30 AM PDT 9:57 PM PDT
Nautical Twilight 3:32 AM PDT 10:56 PM PDT
Astronomical Twilight 1:43 AM PDT 12:41 AM PDT
Moon 9:07 PM PDT (7/3) 5:16 AM PDT (7/3)
Length of Visible Light 17h 26m
Length of Day
16h 03m
Full, 100% of the Moon is Illuminated
Jul 3
Full
Jul 10
Last Quarter
Jul 18
New
Jul 26
First Quarter
Aug 1
Full

Hourly Weather History & Observations

Time (PDT) Temp. Dew Point Humidity Pressure Visibility Wind Dir Wind Speed Gust Speed Precip Events Conditions
12:04 AM 51.8 °F 51.8 °F 100% 29.87 in 2.5 mi West 3.5 mph - 0.01 in Rain Light Rain
12:25 AM 51.8 °F 51.8 °F 100% 29.87 in 2.5 mi West 5.8 mph - 0.06 in Rain Rain
12:35 AM 51.8 °F 51.8 °F 100% 29.87 in 2.5 mi West 3.5 mph - 0.08 in Rain Rain
12:40 AM 51.8 °F 51.8 °F 100% 29.86 in 2.0 mi Calm Calm - 0.09 in Rain Rain
12:50 AM 51.8 °F 50.0 °F 94% 29.86 in 2.0 mi Variable 3.5 mph - 0.12 in Rain Rain
12:53 AM 51.1 °F 50.0 °F 96% 29.88 in 2.5 mi Calm Calm - 0.13 in Rain Rain
1:02 AM 51.8 °F 51.8 °F 100% 29.85 in 4.0 mi Calm Calm - 0.02 in Rain Light Rain
1:24 AM 51.8 °F 50.0 °F 94% 29.84 in 5.0 mi Calm Calm - 0.05 in Rain Light Rain
1:53 AM 52.0 °F 51.1 °F 97% 29.86 in 6.0 mi SSE 3.5 mph - 0.06 in Rain Light Rain
2:03 AM 51.8 °F 51.8 °F 100% 29.83 in 5.0 mi SE 3.5 mph - 0.01 in Rain Light Rain
2:35 AM 51.8 °F 51.8 °F 100% 29.83 in 10.0 mi SE 5.8 mph - 0.02 in   Mostly Cloudy
2:53 AM 53.1 °F 52.0 °F 96% 29.85 in 10.0 mi SE 5.8 mph - 0.02 in   Overcast
3:02 AM 53.6 °F 51.8 °F 94% 29.82 in 10.0 mi SE 4.6 mph - N/A   Overcast
3:53 AM 53.1 °F 51.1 °F 93% 29.84 in 9.0 mi SSE 5.8 mph - 0.01 in Rain Light Rain
4:08 AM 53.6 °F 51.8 °F 94% 29.82 in 10.0 mi Calm Calm - N/A Rain Light Rain
4:53 AM 53.1 °F 52.0 °F 96% 29.85 in 9.0 mi South 4.6 mph - 0.00 in Rain Light Rain
5:15 AM 53.6 °F 51.8 °F 94% 29.83 in 2.5 mi Variable 4.6 mph - 0.05 in Rain Rain
5:36 AM 53.6 °F 51.8 °F 94% 29.84 in 3.0 mi South 4.6 mph - 0.11 in Rain Light Rain
5:49 AM 53.6 °F 51.8 °F 94% 29.83 in 4.0 mi South 4.6 mph - 0.13 in Rain Rain
5:53 AM 53.1 °F 52.0 °F 96% 29.85 in 5.0 mi South 6.9 mph - 0.13 in Rain Light Rain
6:03 AM 51.8 °F 51.8 °F 100% 29.83 in 5.0 mi SSW 4.6 mph - 0.01 in Rain Light Rain
6:07 AM 51.8 °F 51.8 °F 100% 29.84 in 6.0 mi Variable 4.6 mph - 0.01 in Rain Light Rain
6:23 AM 51.8 °F 51.8 °F 100% 29.84 in 4.0 mi Calm Calm - 0.04 in Rain Light Rain
6:53 AM 53.1 °F 51.1 °F 93% 29.87 in 4.0 mi SSE 5.8 mph - 0.07 in Rain Rain
7:28 AM 51.8 °F 51.8 °F 100% 29.87 in 10.0 mi SSE 6.9 mph - 0.07 in Rain Light Rain
7:53 AM 52.0 °F 50.0 °F 93% 29.91 in 7.0 mi South 10.4 mph - 0.09 in Rain Light Rain
8:16 AM 53.6 °F 50.0 °F 88% 29.89 in 4.0 mi South 11.5 mph 19.6 mph 0.02 in Rain Light Rain
8:28 AM 53.6 °F 51.8 °F 94% 29.90 in 3.0 mi South 9.2 mph 23.0 mph 0.03 in Rain Light Rain
8:36 AM 53.6 °F 51.8 °F 94% 29.90 in 4.0 mi SSE 12.7 mph 17.3 mph 0.04 in Rain Light Rain
8:53 AM 53.1 °F 51.1 °F 93% 29.93 in 5.0 mi SSE 10.4 mph - 0.06 in Rain Light Rain
9:00 AM 53.6 °F 51.8 °F 94% 29.91 in 6.0 mi SSE 9.2 mph - 0.01 in Rain Light Rain
9:53 AM 53.1 °F 51.1 °F 93% 29.96 in 3.0 mi South 10.4 mph 17.3 mph 0.10 in Rain Rain
10:02 AM 53.6 °F 51.8 °F 94% 29.94 in 5.0 mi South 9.2 mph - N/A Rain Light Rain
10:51 AM 53.6 °F 51.8 °F 94% 29.97 in 3.0 mi South 11.5 mph - 0.09 in Rain Light Rain
10:53 AM 53.1 °F 51.1 °F 93% 30.00 in 3.0 mi South 10.4 mph - 0.09 in Rain Light Rain
11:53 AM 53.1 °F 51.1 °F 93% 30.02 in 7.0 mi South 11.5 mph - 0.07 in Rain Light Rain
12:53 PM 55.9 °F 53.1 °F 90% 30.04 in 10.0 mi SSE 11.5 mph 18.4 mph 0.02 in Rain Light Rain
1:18 PM 55.4 °F 51.8 °F 88% 30.02 in 10.0 mi SSE 12.7 mph 19.6 mph 0.00 in   Overcast
1:53 PM 57.0 °F 52.0 °F 83% 30.05 in 10.0 mi SSE 13.8 mph - 0.00 in   Overcast
2:53 PM 60.1 °F 51.1 °F 72% 30.07 in 10.0 mi SSE 15.0 mph 23.0 mph N/A   Mostly Cloudy
3:53 PM 61.0 °F 50.0 °F 67% 30.08 in 10.0 mi Variable 5.8 mph - N/A   Overcast
4:53 PM 63.0 °F 50.0 °F 63% 30.09 in 10.0 mi Variable 3.5 mph - N/A   Overcast
5:53 PM 63.0 °F 45.0 °F 52% 30.10 in 10.0 mi SW 6.9 mph - N/A   Mostly Cloudy
6:53 PM 62.1 °F 45.0 °F 53% 30.12 in 10.0 mi SSW 9.2 mph - N/A   Overcast
7:53 PM 60.1 °F 45.0 °F 57% 30.13 in 10.0 mi Calm Calm - N/A   Overcast
8:53 PM 57.9 °F 46.9 °F 67% 30.14 in 10.0 mi Calm Calm - N/A   Overcast
9:53 PM 55.0 °F 46.9 °F 74% 30.15 in 10.0 mi SSE 4.6 mph - N/A   Overcast
10:53 PM 55.9 °F 45.0 °F 67% 30.15 in 10.0 mi South 3.5 mph - N/A   Overcast
11:53 PM 55.9 °F 46.9 °F 72% 30.16 in 10.0 mi SSE 4.6 mph - N/A   Overcast